JBU854 KPBI-KJFK

Flight info

Callsign JBU854
Flight time 2h 18m
Altitude 37000
Route SLIDZ3 LENDS PELCN Y309 FLRDA SAGGY CHIEZ Q161 KALDA Q108 SIE CAMRN5
Aircraft A320/M-SDE3FGHIRWY/LB1

Departure

Time 2026-05-05 00:06
Airport Palm Beach International Airport (KPBI)

Arrival

Time 2026-05-05 02:24
Airport John F. Kennedy International Airport (KJFK)
Time Latitude Longitude Altitude Speed Heading
2026-05-04 23:39 26.68534 -80.08854 28 ft 0 kts 306°
2026-05-04 23:54 26.68531 -80.08848 28 ft 2 kts 304°
2026-05-04 23:55 26.68521 -80.08833 27 ft 2 kts 308°
2026-05-04 23:55 26.68511 -80.08819 27 ft 2 kts 301°
2026-05-04 23:55 26.68508 -80.08783 27 ft 2 kts 252°
2026-05-04 23:56 26.68518 -80.08771 27 ft 1 kts 187°
2026-05-04 23:56 26.68522 -80.08771 27 ft 0 kts 183°
2026-05-04 23:56 26.68521 -80.08771 27 ft 0 kts 183°
2026-05-04 23:59 26.68514 -80.08771 27 ft 2 kts 183°
2026-05-04 23:59 26.68491 -80.08773 23 ft 4 kts 183°
2026-05-05 00:00 26.68455 -80.08782 27 ft 6 kts 212°
2026-05-05 00:00 26.68439 -80.08811 31 ft 8 kts 256°
2026-05-05 00:00 26.68443 -80.08905 27 ft 11 kts 272°
2026-05-05 00:00 26.68447 -80.08997 25 ft 13 kts 272°
2026-05-05 00:01 26.68446 -80.09103 25 ft 14 kts 253°
2026-05-05 00:01 26.68385 -80.09187 30 ft 14 kts 231°
2026-05-05 00:01 26.68365 -80.09293 28 ft 15 kts 274°
2026-05-05 00:01 26.68426 -80.09388 27 ft 15 kts 315°
2026-05-05 00:02 26.68500 -80.09470 30 ft 15 kts 315°
2026-05-05 00:02 26.68579 -80.09557 29 ft 17 kts 315°
2026-05-05 00:02 26.68665 -80.09651 30 ft 18 kts 315°
2026-05-05 00:02 26.68755 -80.09750 29 ft 20 kts 316°
2026-05-05 00:03 26.68861 -80.09869 29 ft 23 kts 315°
2026-05-05 00:03 26.68980 -80.10000 25 ft 25 kts 315°
2026-05-05 00:03 26.69099 -80.10131 24 ft 14 kts 315°
2026-05-05 00:03 26.69150 -80.10193 26 ft 5 kts 305°
2026-05-05 00:04 26.69159 -80.10211 26 ft 3 kts 293°
2026-05-05 00:04 26.69164 -80.10245 25 ft 6 kts 276°
2026-05-05 00:04 26.69165 -80.10297 24 ft 8 kts 254°
2026-05-05 00:04 26.69124 -80.10330 25 ft 7 kts 171°
2026-05-05 00:05 26.69083 -80.10291 25 ft 9 kts 134°
2026-05-05 00:05 26.68947 -80.10139 25 ft 64 kts 134°
2026-05-05 00:05 26.68464 -80.09592 31 ft 130 kts 135°
2026-05-05 00:05 26.67708 -80.08774 286 ft 159 kts 130°
2026-05-05 00:06 26.66879 -80.07894 898 ft 170 kts 130°
2026-05-05 00:06 26.66204 -80.06814 1503 ft 169 kts 104°
2026-05-05 00:06 26.66137 -80.05505 1927 ft 174 kts 80°
2026-05-05 00:06 26.66380 -80.04147 2378 ft 182 kts 77°
2026-05-05 00:07 26.66665 -80.02732 2860 ft 192 kts 79°
2026-05-05 00:07 26.66961 -80.01218 3255 ft 209 kts 77°
2026-05-05 00:07 26.67360 -79.99582 3581 ft 233 kts 74°
2026-05-05 00:07 26.68152 -79.97917 4026 ft 254 kts 49°
2026-05-05 00:08 26.69447 -79.96535 4761 ft 261 kts 46°
2026-05-05 00:08 26.70770 -79.95100 5471 ft 268 kts 45°
2026-05-05 00:08 26.72108 -79.93610 6177 ft 275 kts 46°
2026-05-05 00:08 26.73478 -79.92073 6855 ft 283 kts 45°
2026-05-05 00:09 26.74880 -79.90498 7518 ft 289 kts 45°
2026-05-05 00:09 26.76321 -79.88877 8161 ft 297 kts 44°
2026-05-05 00:09 26.77793 -79.87221 8862 ft 303 kts 44°
2026-05-05 00:09 26.79292 -79.85541 9562 ft 307 kts 43°
2026-05-05 00:10 26.80798 -79.83857 10193 ft 315 kts 43°
2026-05-05 00:10 26.82403 -79.82062 10370 ft 338 kts 43°
2026-05-05 00:10 26.84103 -79.80160 10732 ft 351 kts 44°
2026-05-05 00:10 26.85842 -79.78209 11295 ft 356 kts 43°
2026-05-05 00:11 26.87601 -79.76231 11938 ft 360 kts 43°
2026-05-05 00:11 26.89375 -79.74229 12559 ft 364 kts 44°
2026-05-05 00:11 26.91166 -79.72207 13200 ft 367 kts 43°
2026-05-05 00:11 26.92979 -79.70172 13824 ft 370 kts 43°
2026-05-05 00:12 26.94837 -79.68160 14376 ft 373 kts 41°
2026-05-05 00:12 26.96742 -79.66156 14900 ft 377 kts 40°
2026-05-05 00:12 26.98675 -79.64146 15414 ft 381 kts 40°
2026-05-05 00:12 27.00605 -79.62145 15913 ft 385 kts 40°
2026-05-05 00:13 27.02578 -79.60095 16411 ft 389 kts 39°
2026-05-05 00:13 27.04566 -79.58015 16910 ft 393 kts 39°
2026-05-05 00:13 27.06566 -79.55906 17415 ft 397 kts 39°
2026-05-05 00:13 27.08586 -79.53767 17925 ft 401 kts 40°
2026-05-05 00:14 27.10619 -79.51612 18443 ft 404 kts 39°
2026-05-05 00:14 27.12668 -79.49441 18885 ft 407 kts 39°
2026-05-05 00:14 27.14733 -79.47253 19344 ft 410 kts 39°
2026-05-05 00:14 27.16815 -79.45046 19811 ft 413 kts 39°
2026-05-05 00:15 27.18886 -79.42850 20278 ft 416 kts 39°
2026-05-05 00:15 27.20998 -79.40609 20717 ft 420 kts 39°
2026-05-05 00:15 27.23129 -79.38350 21163 ft 423 kts 39°
2026-05-05 00:15 27.25281 -79.36074 21610 ft 427 kts 39°
2026-05-05 00:16 27.27447 -79.33778 22062 ft 430 kts 39°
2026-05-05 00:16 27.29627 -79.31460 22516 ft 433 kts 39°
2026-05-05 00:16 27.31824 -79.29123 22960 ft 436 kts 39°
2026-05-05 00:16 27.34035 -79.26767 23401 ft 440 kts 39°
2026-05-05 00:17 27.36263 -79.24392 23807 ft 443 kts 39°
2026-05-05 00:17 27.38503 -79.22006 24180 ft 445 kts 39°
2026-05-05 00:17 27.40732 -79.19632 24544 ft 448 kts 39°
2026-05-05 00:17 27.43003 -79.17212 24914 ft 451 kts 39°
2026-05-05 00:18 27.45285 -79.14779 25271 ft 453 kts 39°
2026-05-05 00:18 27.47578 -79.12331 25624 ft 456 kts 39°
2026-05-05 00:18 27.49882 -79.09866 25975 ft 458 kts 39°
2026-05-05 00:18 27.52200 -79.07381 26325 ft 461 kts 39°
2026-05-05 00:19 27.54527 -79.04890 26662 ft 464 kts 39°
2026-05-05 00:19 27.56876 -79.02375 26975 ft 467 kts 39°
2026-05-05 00:19 27.59235 -78.99851 27298 ft 469 kts 38°
2026-05-05 00:19 27.61606 -78.97310 27622 ft 471 kts 38°
2026-05-05 00:20 27.64003 -78.94863 27967 ft 470 kts 32°
2026-05-05 00:20 27.66702 -78.92826 28266 ft 465 kts 22°
2026-05-05 00:20 27.69625 -78.91334 28577 ft 458 kts 12°
2026-05-05 00:20 27.72675 -78.90402 28887 ft 451 kts
2026-05-05 00:21 27.75770 -78.89924 29213 ft 450 kts 359°
2026-05-05 00:21 27.78884 -78.89492 29534 ft 452 kts 359°
2026-05-05 00:21 27.82010 -78.89057 29856 ft 454 kts 359°
2026-05-05 00:21 27.85153 -78.88619 30170 ft 456 kts 359°
2026-05-05 00:22 27.88306 -78.88177 30430 ft 458 kts 359°
2026-05-05 00:22 27.91477 -78.87731 30674 ft 461 kts 359°
2026-05-05 00:22 27.94668 -78.87281 30930 ft 463 kts 359°
2026-05-05 00:22 27.97879 -78.86825 31162 ft 466 kts 359°
2026-05-05 00:23 28.01061 -78.86373 31389 ft 468 kts 359°
2026-05-05 00:23 28.04300 -78.85912 31617 ft 471 kts 359°
2026-05-05 00:23 28.07557 -78.85452 31846 ft 473 kts 359°
2026-05-05 00:23 28.10830 -78.84991 32084 ft 475 kts 359°
2026-05-05 00:24 28.14107 -78.84529 32402 ft 474 kts 359°
2026-05-05 00:24 28.17380 -78.84063 32721 ft 474 kts 359°
2026-05-05 00:24 28.20656 -78.83599 33080 ft 475 kts 359°
2026-05-05 00:24 28.23932 -78.83134 33426 ft 474 kts 359°
2026-05-05 00:25 28.27198 -78.82674 33763 ft 473 kts 359°
2026-05-05 00:25 28.30467 -78.82210 34084 ft 473 kts 359°
2026-05-05 00:25 28.33719 -78.81747 34370 ft 473 kts 359°
2026-05-05 00:25 28.36941 -78.81289 34663 ft 472 kts 359°
2026-05-05 00:26 28.40195 -78.80825 34964 ft 471 kts 359°
2026-05-05 00:26 28.43443 -78.80366 35260 ft 470 kts 359°
2026-05-05 00:26 28.46684 -78.79911 35542 ft 469 kts 359°
2026-05-05 00:26 28.49920 -78.79452 35845 ft 468 kts 359°
2026-05-05 00:27 28.53142 -78.78994 36145 ft 466 kts 359°
2026-05-05 00:27 28.56357 -78.78535 36418 ft 465 kts 359°
2026-05-05 00:27 28.59566 -78.78073 36673 ft 464 kts 359°
2026-05-05 00:27 28.62762 -78.77614 36912 ft 463 kts 359°
2026-05-05 00:28 28.65964 -78.77156 37061 ft 463 kts 359°
2026-05-05 00:28 28.72318 -78.76249 37099 ft 459 kts 359°
2026-05-05 00:29 28.78601 -78.75360 37127 ft 458 kts 359°
2026-05-05 00:29 28.84926 -78.74456 37098 ft 458 kts 359°
2026-05-05 00:30 28.91247 -78.73539 37098 ft 458 kts 359°
2026-05-05 00:30 28.97566 -78.72630 37101 ft 458 kts 359°
2026-05-05 00:31 29.03890 -78.71717 37105 ft 458 kts 359°
2026-05-05 00:31 29.10171 -78.70821 37123 ft 458 kts 359°
2026-05-05 00:32 29.16491 -78.69922 37118 ft 458 kts 359°
2026-05-05 00:32 29.22817 -78.69002 37115 ft 458 kts 359°
2026-05-05 00:33 29.29140 -78.68081 37114 ft 458 kts 359°
2026-05-05 00:33 29.35431 -78.67168 37135 ft 461 kts
2026-05-05 00:34 29.41698 -78.65185 37122 ft 470 kts 10°
2026-05-05 00:34 29.47942 -78.62926 37117 ft 471 kts 10°
2026-05-05 00:35 29.54196 -78.60668 37114 ft 471 kts 10°
2026-05-05 00:35 29.60410 -78.58412 37117 ft 472 kts 10°
2026-05-05 00:36 29.66669 -78.56142 37140 ft 472 kts 10°
2026-05-05 00:36 29.72930 -78.53878 37132 ft 472 kts 10°
2026-05-05 00:37 29.79210 -78.51607 37128 ft 473 kts 10°
2026-05-05 00:37 29.85480 -78.49318 37125 ft 473 kts 10°
2026-05-05 00:38 29.91717 -78.47049 37132 ft 474 kts
2026-05-05 00:38 29.98006 -78.44763 37121 ft 474 kts
2026-05-05 00:39 30.04298 -78.42463 37120 ft 475 kts
2026-05-05 00:39 30.10595 -78.40164 37117 ft 475 kts
2026-05-05 00:40 30.16951 -78.38568 37125 ft 462 kts 358°
2026-05-05 00:40 30.23288 -78.37626 37124 ft 463 kts 358°
2026-05-05 00:41 30.29677 -78.36675 37127 ft 463 kts 359°
2026-05-05 00:41 30.36063 -78.35728 37126 ft 463 kts 359°
2026-05-05 00:42 30.42453 -78.34756 37131 ft 464 kts 360°
2026-05-05 00:42 30.48843 -78.33422 37147 ft 469 kts
2026-05-05 00:43 30.55192 -78.31807 37136 ft 471 kts
2026-05-05 00:43 30.61594 -78.30206 37130 ft 470 kts
2026-05-05 00:44 30.68005 -78.28710 37130 ft 470 kts
2026-05-05 00:44 30.74425 -78.27244 37121 ft 471 kts
2026-05-05 00:45 30.80848 -78.25739 37114 ft 471 kts
2026-05-05 00:45 30.87240 -78.24239 37114 ft 472 kts
2026-05-05 00:46 30.93683 -78.22725 37124 ft 473 kts
2026-05-05 00:46 31.00139 -78.21256 37164 ft 472 kts
2026-05-05 00:47 31.06603 -78.19837 37152 ft 473 kts
2026-05-05 00:47 31.13025 -78.18440 37139 ft 473 kts
2026-05-05 00:48 31.19496 -78.17007 37134 ft 473 kts
2026-05-05 00:48 31.25961 -78.15547 37174 ft 474 kts
2026-05-05 00:49 31.32430 -78.14100 37134 ft 473 kts
2026-05-05 00:49 31.38899 -78.12650 37133 ft 473 kts
2026-05-05 00:50 31.45326 -78.11249 37139 ft 472 kts 360°
2026-05-05 00:50 31.51800 -78.10115 37196 ft 469 kts 358°
2026-05-05 00:51 31.58255 -78.09118 37123 ft 466 kts 358°
2026-05-05 00:51 31.64689 -78.08076 37121 ft 468 kts 359°
2026-05-05 00:52 31.71135 -78.06966 37128 ft 469 kts 359°
2026-05-05 00:52 31.77588 -78.05833 37133 ft 469 kts 359°
2026-05-05 00:53 31.84002 -78.04712 37156 ft 469 kts 359°
2026-05-05 00:53 31.90457 -78.03601 37146 ft 469 kts 359°
2026-05-05 00:54 31.96912 -78.02487 37148 ft 469 kts 359°
2026-05-05 00:54 32.03365 -78.01386 37148 ft 469 kts 359°
2026-05-05 00:55 32.09799 -78.00286 37126 ft 464 kts
2026-05-05 00:55 32.16143 -77.99177 37122 ft 464 kts
2026-05-05 00:56 32.22531 -77.98062 37124 ft 464 kts 360°
2026-05-05 00:56 32.28926 -77.96974 37127 ft 464 kts 360°
2026-05-05 00:57 32.35283 -77.95880 37159 ft 465 kts
2026-05-05 00:57 32.41679 -77.94750 37147 ft 465 kts
2026-05-05 00:58 32.48074 -77.93630 37139 ft 465 kts
2026-05-05 00:58 32.54472 -77.92508 37137 ft 465 kts
2026-05-05 00:59 32.60870 -77.91398 37163 ft 464 kts
2026-05-05 00:59 32.67255 -77.90272 37149 ft 463 kts
2026-05-05 01:00 32.73577 -77.89163 37145 ft 462 kts
2026-05-05 01:00 32.79935 -77.88052 37141 ft 462 kts
2026-05-05 01:01 32.86294 -77.86927 37143 ft 462 kts
2026-05-05 01:01 32.92655 -77.85800 37141 ft 462 kts
2026-05-05 01:02 32.98968 -77.84693 37140 ft 462 kts
2026-05-05 01:02 33.05322 -77.83590 37139 ft 461 kts
2026-05-05 01:03 33.11663 -77.82470 37133 ft 459 kts
2026-05-05 01:03 33.17953 -77.81337 37124 ft 456 kts
2026-05-05 01:04 33.24186 -77.80220 37125 ft 456 kts
2026-05-05 01:04 33.33610 -77.78563 37127 ft 456 kts
2026-05-05 01:05 33.39893 -77.77456 37153 ft 456 kts
2026-05-05 01:05 33.46124 -77.76336 37144 ft 455 kts
2026-05-05 01:06 33.52385 -77.75215 37138 ft 455 kts
2026-05-05 01:06 33.58642 -77.74101 37135 ft 454 kts
2026-05-05 01:07 33.64882 -77.72980 37117 ft 451 kts
2026-05-05 01:07 33.71084 -77.71831 37116 ft 451 kts
2026-05-05 01:08 33.77239 -77.70506 37122 ft 453 kts
2026-05-05 01:08 33.83429 -77.69096 37121 ft 453 kts
2026-05-05 01:09 33.89628 -77.67714 37143 ft 453 kts
2026-05-05 01:09 33.95823 -77.66369 37135 ft 452 kts
2026-05-05 01:10 34.01972 -77.65037 37128 ft 452 kts
2026-05-05 01:10 34.08159 -77.63681 37126 ft 452 kts
2026-05-05 01:11 34.14345 -77.62319 37144 ft 452 kts
2026-05-05 01:11 34.20520 -77.60961 37134 ft 451 kts
2026-05-05 01:12 34.26656 -77.59611 37122 ft 451 kts
2026-05-05 01:12 34.32821 -77.58255 37116 ft 451 kts
2026-05-05 01:13 34.38988 -77.56892 37142 ft 451 kts
2026-05-05 01:13 34.45157 -77.55524 37122 ft 450 kts
2026-05-05 01:14 34.51267 -77.54034 37122 ft 455 kts 11°
2026-05-05 01:14 34.57125 -77.50901 37134 ft 463 kts 20°
2026-05-05 01:15 34.62895 -77.47443 37147 ft 463 kts 20°
2026-05-05 01:15 34.68666 -77.43987 37143 ft 463 kts 21°
2026-05-05 01:16 34.74437 -77.40524 37139 ft 463 kts 21°
2026-05-05 01:16 34.80168 -77.37079 37130 ft 462 kts 21°
2026-05-05 01:17 34.85936 -77.33605 37119 ft 461 kts 21°
2026-05-05 01:17 34.91667 -77.30145 37108 ft 459 kts 21°
2026-05-05 01:18 34.97393 -77.26692 37113 ft 460 kts 20°
2026-05-05 01:18 35.03091 -77.23252 37116 ft 460 kts 21°
2026-05-05 01:19 35.08833 -77.19768 37131 ft 461 kts 21°
2026-05-05 01:19 35.14576 -77.16287 37128 ft 461 kts 21°
2026-05-05 01:20 35.20326 -77.12798 37101 ft 461 kts 21°
2026-05-05 01:20 35.26030 -77.09322 37104 ft 461 kts 21°
2026-05-05 01:21 35.31775 -77.05820 37104 ft 461 kts 21°
2026-05-05 01:21 35.37522 -77.02320 37104 ft 461 kts 21°
2026-05-05 01:22 35.43266 -76.98811 37115 ft 461 kts 21°
2026-05-05 01:22 35.49003 -76.95290 37123 ft 461 kts 21°
2026-05-05 01:23 35.54699 -76.91788 37147 ft 461 kts 20°
2026-05-05 01:23 35.60401 -76.88282 37092 ft 456 kts 20°
2026-05-05 01:24 35.66090 -76.84826 37054 ft 457 kts 20°
2026-05-05 01:24 35.71799 -76.81374 37055 ft 458 kts 20°
2026-05-05 01:25 35.77479 -76.77926 37088 ft 459 kts 20°
2026-05-05 01:25 35.83200 -76.74432 37084 ft 459 kts 20°
2026-05-05 01:26 35.88916 -76.70925 37102 ft 459 kts 20°
2026-05-05 01:26 35.94602 -76.67331 37107 ft 460 kts 22°
2026-05-05 01:27 36.00177 -76.63539 37139 ft 461 kts 23°
2026-05-05 01:27 36.05771 -76.59674 37125 ft 460 kts 23°
2026-05-05 01:28 36.11376 -76.55856 37121 ft 459 kts 22°
2026-05-05 01:28 36.16989 -76.52074 37108 ft 459 kts 22°
2026-05-05 01:29 36.22559 -76.48309 37117 ft 459 kts 22°
2026-05-05 01:29 36.28168 -76.44504 37084 ft 459 kts 22°
2026-05-05 01:30 36.33767 -76.40691 37079 ft 459 kts 22°
2026-05-05 01:30 36.39364 -76.36869 37075 ft 459 kts 22°
2026-05-05 01:31 36.44923 -76.33073 37091 ft 459 kts 23°
2026-05-05 01:31 36.50526 -76.29248 37075 ft 460 kts 23°
2026-05-05 01:32 36.56131 -76.25415 37067 ft 460 kts 23°
2026-05-05 01:32 36.61742 -76.21564 37070 ft 461 kts 23°
2026-05-05 01:33 36.67311 -76.17728 37059 ft 461 kts 23°
2026-05-05 01:33 36.72927 -76.13863 37076 ft 461 kts 22°
2026-05-05 01:34 36.78551 -76.09987 37040 ft 462 kts 22°
2026-05-05 01:34 36.84176 -76.06090 37039 ft 463 kts 22°
2026-05-05 01:35 36.89773 -76.02217 37051 ft 463 kts 23°
2026-05-05 01:35 36.95412 -75.98322 37053 ft 463 kts 23°
2026-05-05 01:36 37.01043 -75.94416 37050 ft 463 kts 23°
2026-05-05 01:36 37.06669 -75.90507 37053 ft 462 kts 23°
2026-05-05 01:37 37.12525 -75.87685 37060 ft 450 kts
2026-05-05 01:37 37.18560 -75.85605 37052 ft 450 kts 10°
2026-05-05 01:38 37.24589 -75.83513 37044 ft 449 kts 10°
2026-05-05 01:38 37.30609 -75.81424 37042 ft 449 kts
2026-05-05 01:39 37.36628 -75.79336 37051 ft 448 kts 11°
2026-05-05 01:39 37.42596 -75.77243 37051 ft 448 kts 11°
2026-05-05 01:40 37.48587 -75.75146 37046 ft 447 kts 11°
2026-05-05 01:40 37.54576 -75.73064 37044 ft 446 kts 11°
2026-05-05 01:41 37.60561 -75.70968 37042 ft 446 kts 11°
2026-05-05 01:41 37.66502 -75.68874 37042 ft 446 kts 11°
2026-05-05 01:42 37.72480 -75.66769 37041 ft 446 kts 11°
2026-05-05 01:42 37.78458 -75.64662 37046 ft 446 kts 11°
2026-05-05 01:43 37.84358 -75.62194 37033 ft 451 kts 22°
2026-05-05 01:43 37.89643 -75.57927 37032 ft 455 kts 31°
2026-05-05 01:44 37.94855 -75.53374 37029 ft 455 kts 31°
2026-05-05 01:44 38.00071 -75.48830 37035 ft 455 kts 31°
2026-05-05 01:45 38.05287 -75.44277 37023 ft 455 kts 31°
2026-05-05 01:45 38.10529 -75.39890 37024 ft 454 kts 28°
2026-05-05 01:46 38.15871 -75.35608 37016 ft 454 kts 28°
2026-05-05 01:46 38.21206 -75.31316 37043 ft 454 kts 29°
2026-05-05 01:47 38.26844 -75.27929 37039 ft 444 kts 11°
2026-05-05 01:47 38.32827 -75.26506 37037 ft 440 kts
2026-05-05 01:48 38.38876 -75.25248 37033 ft 440 kts
2026-05-05 01:48 38.44919 -75.23974 37040 ft 440 kts
2026-05-05 01:49 38.50965 -75.22691 37029 ft 440 kts
2026-05-05 01:49 38.57010 -75.21423 37015 ft 440 kts
2026-05-05 01:50 38.63013 -75.20166 37012 ft 440 kts
2026-05-05 01:50 38.69004 -75.18520 37000 ft 444 kts 17°
2026-05-05 01:51 38.74417 -75.14638 36993 ft 451 kts 34°
2026-05-05 01:51 38.79399 -75.09753 36992 ft 451 kts 34°
2026-05-05 01:52 38.84358 -75.04895 37011 ft 451 kts 34°
2026-05-05 01:52 38.89341 -75.00000 37006 ft 451 kts 34°
2026-05-05 01:53 38.94323 -74.95091 37001 ft 451 kts 34°
2026-05-05 01:53 38.99299 -74.90175 37005 ft 451 kts 34°
2026-05-05 01:54 39.04271 -74.85265 36602 ft 450 kts 34°
2026-05-05 01:54 39.06723 -74.82844 35800 ft 449 kts 35°
2026-05-05 01:54 39.09195 -74.80400 35129 ft 445 kts 35°
2026-05-05 01:55 39.11632 -74.77937 34432 ft 446 kts 36°
2026-05-05 01:55 39.14029 -74.75400 33622 ft 446 kts 38°
2026-05-05 01:55 39.16394 -74.72816 32751 ft 444 kts 38°
2026-05-05 01:55 39.18727 -74.70232 31907 ft 439 kts 38°
2026-05-05 01:56 39.21046 -74.67667 31091 ft 442 kts 38°
2026-05-05 01:56 39.23397 -74.65088 30309 ft 445 kts 38°
2026-05-05 01:56 39.25768 -74.62503 29443 ft 447 kts 38°
2026-05-05 01:56 39.28156 -74.59913 28536 ft 449 kts 38°
2026-05-05 01:57 39.30516 -74.57358 27683 ft 449 kts 38°
2026-05-05 01:57 39.32914 -74.54760 26837 ft 449 kts 38°
2026-05-05 01:57 39.35303 -74.52165 26016 ft 449 kts 38°
2026-05-05 01:57 39.37690 -74.49565 25234 ft 448 kts 38°
2026-05-05 01:58 39.40071 -74.46972 24466 ft 447 kts 38°
2026-05-05 01:58 39.42453 -74.44381 23716 ft 446 kts 38°
2026-05-05 01:58 39.44825 -74.41799 22870 ft 445 kts 38°
2026-05-05 01:58 39.47187 -74.39220 22015 ft 444 kts 38°
2026-05-05 01:59 39.49506 -74.36682 21185 ft 442 kts 38°
2026-05-05 01:59 39.51852 -74.34116 20368 ft 440 kts 37°
2026-05-05 01:59 39.54184 -74.31560 19584 ft 438 kts 37°
2026-05-05 01:59 39.56490 -74.29026 19141 ft 429 kts 37°
2026-05-05 02:00 39.58726 -74.26564 18955 ft 415 kts 37°
2026-05-05 02:00 39.60881 -74.24189 18960 ft 398 kts 37°
2026-05-05 02:00 39.62945 -74.21913 18965 ft 381 kts 37°
2026-05-05 02:00 39.64924 -74.19733 18982 ft 370 kts 37°
2026-05-05 02:01 39.66880 -74.17585 18930 ft 366 kts 37°
2026-05-05 02:01 39.68818 -74.15462 18529 ft 363 kts 37°
2026-05-05 02:01 39.70721 -74.13377 18088 ft 362 kts 37°
2026-05-05 02:01 39.72638 -74.11271 17634 ft 360 kts 37°
2026-05-05 02:02 39.74541 -74.09174 17190 ft 358 kts 37°
2026-05-05 02:02 39.76430 -74.07089 16767 ft 355 kts 37°
2026-05-05 02:02 39.78305 -74.05011 16346 ft 353 kts 37°
2026-05-05 02:02 39.80168 -74.02943 15934 ft 351 kts 37°
2026-05-05 02:03 39.82021 -74.00886 15514 ft 349 kts 37°
2026-05-05 02:03 39.83893 -73.98886 15097 ft 346 kts 32°
2026-05-05 02:03 39.85931 -73.97280 14694 ft 341 kts 24°
2026-05-05 02:03 39.88013 -73.95820 14286 ft 339 kts 24°
2026-05-05 02:04 39.90096 -73.94353 13717 ft 343 kts 24°
2026-05-05 02:04 39.92180 -73.92883 13061 ft 347 kts 25°
2026-05-05 02:04 39.94315 -73.91374 12413 ft 351 kts 25°
2026-05-05 02:04 39.96468 -73.89851 11779 ft 353 kts 25°
2026-05-05 02:05 39.98626 -73.88321 11237 ft 352 kts 25°
2026-05-05 02:05 40.00737 -73.86816 11081 ft 340 kts 25°
2026-05-05 02:05 40.02760 -73.85371 11072 ft 325 kts 25°
2026-05-05 02:05 40.04723 -73.83925 11070 ft 323 kts 27°
2026-05-05 02:06 40.06648 -73.82410 11075 ft 323 kts 27°
2026-05-05 02:06 40.08572 -73.80888 11069 ft 323 kts 27°
2026-05-05 02:06 40.10493 -73.79367 11068 ft 323 kts 27°
2026-05-05 02:06 40.11767 -73.78358 11063 ft 323 kts 27°
2026-05-05 02:07 40.14313 -73.76341 11064 ft 323 kts 27°
2026-05-05 02:07 40.16234 -73.74821 11063 ft 323 kts 27°
2026-05-05 02:07 40.18155 -73.73303 11070 ft 323 kts 27°
2026-05-05 02:07 40.20070 -73.71788 10843 ft 320 kts 27°
2026-05-05 02:08 40.21969 -73.70289 10470 ft 318 kts 27°
2026-05-05 02:08 40.23830 -73.68818 10334 ft 307 kts 27°
2026-05-05 02:08 40.25024 -73.67872 10249 ft 301 kts 27°
2026-05-05 02:08 40.26800 -73.66462 9989 ft 296 kts 27°
2026-05-05 02:09 40.28556 -73.65069 9679 ft 294 kts 27°
2026-05-05 02:09 40.30297 -73.63671 9308 ft 294 kts 28°
2026-05-05 02:09 40.32037 -73.62276 8949 ft 292 kts 27°
2026-05-05 02:09 40.34329 -73.60426 8455 ft 292 kts 27°
2026-05-05 02:10 40.36048 -73.59049 8105 ft 291 kts 27°
2026-05-05 02:10 40.37776 -73.57661 7762 ft 290 kts 28°
2026-05-05 02:10 40.38918 -73.56754 7555 ft 290 kts 26°
2026-05-05 02:10 40.40640 -73.55377 7194 ft 290 kts 27°
2026-05-05 02:11 40.42361 -73.54012 6873 ft 289 kts 26°
2026-05-05 02:11 40.44080 -73.52641 6529 ft 289 kts 28°
2026-05-05 02:11 40.45795 -73.51287 6197 ft 287 kts 28°
2026-05-05 02:11 40.48069 -73.49501 5742 ft 287 kts 26°
2026-05-05 02:12 40.49783 -73.48165 5374 ft 287 kts 27°
2026-05-05 02:12 40.52640 -73.45956 4821 ft 286 kts 27°
2026-05-05 02:12 40.54360 -73.44633 4459 ft 286 kts 27°
2026-05-05 02:13 40.56079 -73.43322 4133 ft 286 kts 27°
2026-05-05 02:13 40.57798 -73.42016 4045 ft 286 kts 27°
2026-05-05 02:13 40.59534 -73.40715 4050 ft 287 kts 27°
2026-05-05 02:13 40.61270 -73.39416 4052 ft 288 kts 27°
2026-05-05 02:14 40.63009 -73.38114 4053 ft 288 kts 27°
2026-05-05 02:14 40.64734 -73.36816 4053 ft 287 kts 27°
2026-05-05 02:14 40.66469 -73.35506 4055 ft 287 kts 27°
2026-05-05 02:14 40.68197 -73.34203 4054 ft 287 kts 27°
2026-05-05 02:15 40.70008 -73.33142 4052 ft 281 kts
2026-05-05 02:15 40.71865 -73.33183 4052 ft 256 kts 338°
2026-05-05 02:15 40.73326 -73.34308 4053 ft 239 kts 307°
2026-05-05 02:15 40.74171 -73.36128 4055 ft 232 kts 289°
2026-05-05 02:16 40.74796 -73.38093 4055 ft 232 kts 287°
2026-05-05 02:16 40.75387 -73.40046 4050 ft 223 kts 287°
2026-05-05 02:16 40.75943 -73.41878 4051 ft 208 kts 287°
2026-05-05 02:16 40.76469 -73.43579 4049 ft 192 kts 287°
2026-05-05 02:17 40.76955 -73.45120 4088 ft 181 kts 287°
2026-05-05 02:17 40.77440 -73.46638 4052 ft 179 kts 287°
2026-05-05 02:17 40.77926 -73.48149 4054 ft 179 kts 287°
2026-05-05 02:17 40.78413 -73.49666 4018 ft 180 kts 287°
2026-05-05 02:18 40.78900 -73.51184 4017 ft 180 kts 287°
2026-05-05 02:18 40.79384 -73.52696 4017 ft 179 kts 287°
2026-05-05 02:18 40.79868 -73.54210 4031 ft 178 kts 287°
2026-05-05 02:18 40.80356 -73.55711 4022 ft 178 kts 287°
2026-05-05 02:19 40.80818 -73.57220 4019 ft 175 kts 278°
2026-05-05 02:19 40.80938 -73.58789 4019 ft 170 kts 264°
2026-05-05 02:19 40.80763 -73.60317 4018 ft 167 kts 248°
2026-05-05 02:19 40.80219 -73.61677 4013 ft 168 kts 238°
2026-05-05 02:20 40.79602 -73.62964 4016 ft 168 kts 237°
2026-05-05 02:20 40.78876 -73.64205 4016 ft 171 kts 220°
2026-05-05 02:20 40.77873 -73.65027 4038 ft 173 kts 214°
2026-05-05 02:20 40.76845 -73.65828 4029 ft 170 kts 213°
2026-05-05 02:21 40.75853 -73.66583 3829 ft 160 kts 213°
2026-05-05 02:21 40.74895 -73.67296 3510 ft 157 kts 212°
2026-05-05 02:21 40.73961 -73.68022 3169 ft 155 kts 214°
2026-05-05 02:21 40.73055 -73.68774 2800 ft 153 kts 214°
2026-05-05 02:22 40.72167 -73.69511 2457 ft 145 kts 213°
2026-05-05 02:22 40.71346 -73.70166 2158 ft 135 kts 212°
2026-05-05 02:22 40.70545 -73.70800 1808 ft 134 kts 211°
2026-05-05 02:22 40.69746 -73.71429 1446 ft 134 kts 211°
2026-05-05 02:23 40.68964 -73.72057 1169 ft 133 kts 211°
2026-05-05 02:23 40.68171 -73.72690 944 ft 134 kts 209°
2026-05-05 02:23 40.67360 -73.73292 741 ft 133 kts 208°
2026-05-05 02:23 40.66571 -73.73913 560 ft 132 kts 209°
2026-05-05 02:24 40.65793 -73.74529 369 ft 130 kts 206°
2026-05-05 02:24 40.65010 -73.75124 189 ft 129 kts 209°
2026-05-05 02:24 40.64242 -73.75716 37 ft 119 kts 208°
2026-05-05 02:24 40.63765 -73.76222 26 ft 44 kts 240°
2026-05-05 02:25 40.63733 -73.76312 29 ft 0 kts 239°
2026-05-05 02:25 40.63727 -73.76327 26 ft 0 kts 244°
2026-05-05 02:26 40.63717 -73.76377 25 ft 9 kts 269°
2026-05-05 02:26 40.63762 -73.76381 26 ft 5 kts 57°
2026-05-05 02:26 40.63763 -73.76379 25 ft 0 kts 57°
2026-05-05 02:26 40.63772 -73.76357 27 ft 1 kts 64°